Location: La Hoya
(40.5703°N, 4.2337°W)
Time: 12:51:16
(UTC+00:00)

Daily predictions for brighter satellites

Satellite Brightness Start Highest point End
(mag) Time Altitude Azimuth Time Altitude Azimuth Time Altitude Azimuth
CZ-4B DEB 4.3 17:16:13 10° SSE 17:21:41 90° WSW 17:27:11 10° NNW
Cosmos 482 Debris 4.3 17:20:57 10° NNW 17:22:14 16° NNE 17:23:34 10° ENE
SL-8 Rocket 4.1 17:17:24 10° N 17:23:32 54° E 17:29:40 10° SSE
Cosmos 2341 Rocket 4.0 17:18:48 10° N 17:25:08 74° E 17:31:28 10° SSE
X-37B 0.6 17:23:08 10° WSW 17:26:17 74° NNW 17:29:28 10° ENE
Radarsat Rocket 4.1 17:20:14 10° SSE 17:26:18 77° ENE 17:33:07 10° NNW
COSMO-SKYMED 1 4.0 17:24:53 10° NE 17:27:58 19° E 17:31:02 10° SE
CORIOLIS 4.3 17:26:34 10° SSE 17:31:49 54° ENE 17:37:06 10° N
Meteor 1-4 Rocket 3.0 17:29:04 10° SSE 17:32:27 39° E 17:35:47 10° NNE
USA 81 4.2 17:27:58 10° N 17:33:09 53° E 17:38:18 10° SSE
PAYLOAD B 4.4 17:29:17 10° SSE 17:34:52 84° WSW 17:40:28 10° NNW
Cosmos 1812 4.5 17:33:17 10° ESE 17:35:12 13° E 17:36:35 12° ENE
Cosmos 2285 Rocket 4.0 17:29:00 10° NNW 17:35:24 70° ENE 17:41:41 10° SSE
H-2A R/B 3.8 17:35:17 10° ENE 17:35:41 10° ENE 17:36:37 10° NE
Cosmos 1356 4.4 17:32:33 10° NNW 17:35:52 50° W 17:39:12 10° S
Cosmos 1939 Rocket 4.0 17:34:47 10° ESE 17:37:48 22° ENE 17:40:51 10° NNE
Cosmos 389 Rocket 4.4 17:35:18 10° SW 17:38:21 30° WNW 17:41:25 10° NNW
Cosmos 1328 Rocket 3.5 17:34:08 10° S 17:38:23 65° E 17:42:42 10° NNE
CZ-4 R/B 3.4 17:41:26 11° NE 17:41:26 11° NE 17:41:50 10° NE
BREEZE-M DEB (TANK) 3.8 17:36:10 10° SSW 17:40:32 27° SSE 17:42:52 12° E
Cosmos 1933 Rocket 4.3 17:40:22 10° NNE 17:44:20 30° ENE 17:48:15 10° SE
Cosmos 1666 Rocket 3.8 17:41:00 10° N 17:45:27 78° W 17:49:54 10° S
Cosmos 2181 Rocket 4.1 17:39:46 10° S 17:46:12 88° E 17:52:35 10° N
Meteor 1-20 Rocket 4.3 17:40:51 10° N 17:46:45 85° E 17:52:32 10° S
H-2A R/B 3.3 17:42:37 10° S 17:46:48 56° W 17:50:51 10° NNW
Cosmos 1602 4.0 17:43:09 10° N 17:46:56 46° E 17:50:40 10° SSE
Cosmos 2237 Rocket 4.4 17:43:22 10° W 17:47:23 20° NW 17:51:27 10° N
NOAA 11 4.2 17:42:31 10° SSE 17:47:48 57° ENE 17:53:09 10° N
Cosmos 44 4.0 17:43:25 10° NW 17:48:44 67° WSW 17:54:05 10° SSE
CZ-4B R/B 3.1 17:43:44 10° SSE 17:49:03 89° SW 17:54:23 10° NNW
Cosmos 1603 4.0 17:46:15 10° S 17:51:36 46° ESE 17:56:56 10° NE
Meteor 1-26 Rocket 4.4 17:45:46 10° S 17:51:48 80° E 17:57:49 10° NNE
CZ-2D R/B 4.3 17:51:35 10° ESE 17:54:38 23° ENE 17:57:42 10° NNE
Cosmos 1943 3.6 17:49:41 10° S 17:54:58 43° ESE 17:59:58 12° NE
Cosmos 1538 Rocket 4.0 17:51:46 10° SSW 17:57:06 79° ESE 18:02:31 10° NNE
NOAA 12 4.3 17:52:34 10° S 17:57:53 78° WSW 18:03:13 10° NNW
Cosmos 2369 Rocket 2.3 17:54:13 10° NNW 17:59:45 51° ENE 18:05:13 10° SE
H-2A R/B 3.2 17:55:51 10° N 17:59:53 45° WNW 18:03:59 10° SW
Cosmos 1782 2.7 17:56:51 10° S 18:00:47 84° E 18:04:47 10° N
Cosmos 1943 Rocket 2.1 17:55:28 10° NNW 18:01:04 85° ENE 18:06:40 10° SSE
Okean O Rocket 1.8 17:56:53 10° S 18:01:14 74° WSW 18:05:37 10° NNW
Meteor 1-14 Rocket 4.4 17:56:37 10° N 18:02:33 61° ENE 18:08:26 10° SSE
Okean-O 3.7 17:59:34 10° ESE 18:03:03 23° ENE 18:06:33 10° NNE
CENTAUR R/B 3.3 18:00:19 10° SSE 18:05:01 27° ESE 18:07:44 20° ENE
ISS -1.6 18:03:38 10° NNW 18:05:23 13° N 18:05:55 13° NNE
Cosmos 1633 Rocket 4.0 18:05:20 10° NNW 18:09:34 50° W 18:13:45 10° SSW
NOSS 3-2 (C) 4.1 18:08:23 10° S 18:13:05 30° ESE 18:15:10 24° ENE
SL-08 R/B 4.4 18:07:32 10° N 18:13:39 66° E 18:19:42 10° SSE
ERS-2 2.0 18:10:54 10° NNE 18:14:35 88° ESE 18:18:13 10° SSW
SKYMED 2 3.5 18:11:57 10° NNE 18:16:16 64° E 18:20:34 10° S
BREEZE-M DEB (TANK) 3.8 18:06:29 10° SW 18:17:57 78° SSE 18:20:00 29° ENE
Meteor 1-27 Rocket 4.5 18:15:06 10° SE 18:19:38 27° E 18:20:11 27° ENE
Meteor 1-10 Rocket 4.3 18:18:30 10° SSE 18:23:55 50° E 18:28:49 12° NNE
Lacrosse 5 rocket 3.6 18:22:48 10° NW 18:24:13 12° NNW 18:25:38 10° N
Cosmos 2366 rocket 4.5 18:18:42 10° NNW 18:24:46 62° W 18:30:48 10° S
BREEZE-M DEB (TANK) 4.3 18:25:54 10° NNW 18:26:37 13° NNW 18:26:37 13° NNW
FALCON 9 R/B 2.1 18:26:20 10° SW 18:28:13 23° S 18:28:30 22° SSE
CZ-4B R/B 2.8 18:29:40 10° N 18:32:33 35° WNW 18:35:29 10° SW
Feng Yun 1-1 Rocket 4.4 18:30:59 10° S 18:36:45 79° WSW 18:42:24 10° NNW
NOSS 3-2 (A) 3.2 18:32:34 10° SSW 18:38:06 81° ESE 18:41:27 28° NE
SL-16 R/B 4.4 18:36:24 10° W 18:40:33 21° NW 18:44:42 10° N
Cosmos 1500 3.1 18:39:07 10° N 18:42:58 84° W 18:46:47 10° S
YAOGAN 1 4.0 18:46:29 24° N 18:46:29 24° N 18:48:17 10° N
Cosmos 2239 Rocket 4.3 18:39:42 10° N 18:45:52 69° E 18:52:02 10° SSE
USA 215 3.2 18:46:42 33° NE 18:50:01 86° SE 18:56:34 10° SW
Cosmos 1656 Rocket 3.5 18:49:13 10° NNW 18:54:52 79° ENE 18:58:59 19° SSE
MOS 1 Rocket 3.5 18:52:44 25° NNE 18:56:03 79° E 19:01:23 10° S
NOAA 15 4.4 18:51:39 10° SSE 18:56:55 75° ENE 19:02:12 10° N
USA 238 DEB 3.6 18:50:49 10° SW 18:57:22 87° NW 19:00:35 34° NNE
USA 238 3.6 18:50:54 10° SSW 18:57:28 87° NW 19:00:39 35° NNE
Cosmos 158 Rocket 4.1 18:53:39 10° SSW 18:58:37 68° WNW 19:00:46 33° N
CZ-2C R/B 2.8 18:54:54 10° SSE 18:59:57 89° WSW 19:04:48 10° NNW
Cosmos 1689 Rocket 4.0 19:00:58 29° WSW 19:00:58 29° WSW 19:02:48 10° SW
Cosmos 923 Rocket 4.3 18:57:23 10° SSW 19:02:31 63° WNW 19:05:13 28° N
X-37B 2.8 19:00:14 10° WNW 19:01:44 22° NW 19:01:44 22° NW
Cosmos 2263 4.4 18:58:40 10° NNW 19:04:14 67° WSW 19:09:46 10° S
COSMO-SKYMED 1 4.0 19:00:20 11° N 19:04:14 37° WNW 19:08:13 10° SW
Cosmos 1238 Rocket 3.3 19:01:51 10° NNW 19:06:01 73° W 19:11:07 10° S
CSL-04 Debris 4.5 19:09:14 50° NNE 19:09:14 50° NNE 19:13:27 10° N
Cosmos 1934 Rocket 3.9 19:02:22 10° N 19:08:45 71° E 19:14:59 10° SSE
Cosmos 2228 Rocket 4.1 19:04:46 10° SSW 19:09:08 46° WNW 19:12:01 19° NNW
Cosmos 1812 4.1 19:07:02 10° SSW 19:10:36 36° WNW 19:11:43 29° NW
USA 281 3.1 19:05:27 10° SSE 19:12:01 82° ENE 19:18:36 10° NNW
H-2A R/B 2.6 19:15:55 45° N 19:15:55 45° N 19:19:28 10° N
CZ-4 R/B 3.5 19:10:57 10° S 19:17:28 19° NNW 19:18:47 10° NNW
Cosmos 2084 4.3 19:13:08 10° SW 19:16:08 45° SW 19:16:08 45° SW
USA 267 3.6 19:21:32 46° NNE 19:21:32 46° NNE 19:27:20 10° NW
Cosmos 44 Rocket 3.7 19:19:34 10° NW 19:23:56 63° NW 19:23:56 63° NW
Lacrosse 4 Rocket 2.9 19:21:10 10° SW 19:23:20 30° SW 19:23:20 30° SW
Meteor 1-11 Rocket 3.9 19:19:55 10° NNW 19:25:44 76° W 19:31:37 10° S
ATLAS 3B R/B 4.4 19:23:33 10° S 19:24:49 15° SSE 19:24:49 15° SSE
Cosmos 1680 Rocket 4.3 19:24:21 10° SW 19:29:26 48° WNW 19:30:41 40° NNW
NOSS 3-3 (A) 4.5 19:25:01 10° NW 19:32:44 88° WSW 19:35:32 47° SSE
NOSS 3-3 (C) 4.5 19:25:06 10° NW 19:32:50 88° WSW 19:35:32 49° SSE
Okean-O 4.3 19:35:23 10° SSW 19:39:20 32° W 19:43:20 10° NNW
Cosmos 2369 Rocket 4.5 19:39:07 10° NW 19:43:21 22° W 19:47:33 10° SSW
CENTAUR R/B 3.1 19:49:25 10° SW 19:54:58 52° NW 19:54:58 52° NW
NOSS 3-2 (C) 4.4 19:58:14 10° WSW 20:02:39 41° WNW 20:02:39 41° WNW
